Wind_Speed
37 36 37 37 37 37 38 37 37 38 38 38 38 38 38 38 38 38 38 38 38 38 38 37 37 37 37 37 37 37 37 36 36 36 36 36 36 36 36 36 36 36 36
38 38 38 38 38 38 39 39 39 39 40 40 40 40 40 40 40 41 41 41 41 41 41 40 39 40 40 39 39 39 39 39 39 39 39 39 39 38 38 38 38 38 38
40 40 40 39 39 39 39 39 40 41 42 42 42 43 43 43 43 43 43 43 43 43 43 43 43 42 42 42 42 42 42 41 41 42 42 42 41 41 41 40 40 40 40
41 41 41 41 40 40 41 41 41 42 42 43 44 44 45 45 46 46 46 46 46 45 45 45 45 45 45 45 45 44 45 44 44 44 44 44 44 43 43 42 42 42 42
43 43 42 42 42 42 42 42 43 44 44 44 45 45 46 47 48 48 48 48 48 47 46 46 46 47 47 47 47 47 47 47 47 47 47 47 47 46 45 45 45 44 44
44 44 44 44 44 44 44 45 45 46 46 47 47 47 48 49 50 49 49 49 48 48 48 47 47 47 48 48 48 49 49 49 49 49 50 50 49 49 48 47 47 46 46
46 46 46 46 46 47 47 47 48 48 48 48 49 49 49 50 50 49 49 49 48 48 49 49 49 49 49 49 49 50 50 50 50 51 51 51 51 51 50 49 49 48 48
47 47 48 48 47 47 48 48 48 48 48 48 49 50 50 49 49 50 50 50 49 49 49 50 50 50 51 51 50 50 49 49 51 51 51 51 51 51 51 50 50 50 49
49 49 48 49 49 49 49 48 47 47 47 48 49 50 50 49 50 49 49 49 49 49 49 50 51 51 51 51 51 50 50 51 52 52 51 51 51 51 51 52 52 51 50
48 48 49 49 49 49 49 48 47 47 47 47 48 49 50 50 50 49 48 49 49 49 49 50 51 51 51 51 51 51 51 51 51 52 52 51 52 52 52 51 52 51 50
48 48 48 48 49 49 48 48 48 48 48 48 48 48 49 50 50 50 48 49 50 49 49 50 50 50 49 49 50 50 50 50 50 51 51 51 51 52 52 52 50 49 49
47 48 48 49 49 49 48 48 47 47 47 47 47 47 47 48 49 49 49 50 50 49 49 48 47 47 48 49 49 50 51 51 51 51 50 50 50 51 51 52 50 48 48
44 46 47 48 48 48 48 48 47 47 47 47 46 46 46 46 47 48 49 50 50 49 48 47 48 48 49 49 50 51 51 51 51 50 50 50 50 51 51 51 51 49 48
43 44 45 46 46 46 47 46 46 46 46 45 44 45 45 46 47 48 48 48 49 48 48 48 49 50 50 51 51 50 51 51 50 51 51 50 49 49 49 49 50 49 48
42 42 43 43 44 44 45 45 44 44 43 44 44 44 45 46 46 47 47 47 48 48 48 48 50 50 50 50 50 50 50 50 51 50 50 49 47 47 47 47 49 49 48
39 41 41 42 42 43 43 43 42 42 42 43 44 44 44 45 45 45 45 46 47 48 48 48 49 50 50 49 49 49 49 49 48 48 47 47 47 47 47 47 47 47 47
39 39 40 39 40 40 41 41 41 42 42 42 43 43 43 44 44 44 45 46 47 48 48 46 47 48 48 48 48 48 48 48 47 47 46 45 45 46 46 46 46 46 46
38 39 39 38 38 38 39 39 40 41 41 42 42 43 43 43 44 44 44 45 46 46 46 45 44 45 46 46 46 46 46 46 46 45 44 44 44 44 44 44 44 43 43
37 36 36 37 37 38 38 39 40 41 41 41 42 42 42 43 43 43 43 43 44 44 43 42 42 42 43 43 43 43 43 43 41 43 44 44 44 43 41 41 41 40 40
36 35 36 36 36 37 38 38 39 41 41 41 41 40 41 42 42 42 42 42 42 42 41 40 40 41 41 40 40 39 40 40 40 40 41 42 42 40 39 39 38 37 37
36 36 36 36 37 37 37 37 38 40 41 41 41 40 40 40 40 40 41 40 40 39 39 39 39 39 39 38 38 38 37 37 37 37 37 38 38 37 37 36 36 36 35
36 36 36 36 36 36 36 36 36 37 39 39 39 39 39 38 38 38 38 38 38 37 37 37 37 36 35 35 34 34 35 35 35 35 35 35 35 34 33 33 33 34 33
35 35 35 35 35 35 35 36 36 36 36 36 37 37 36 36 35 35 35 35 35 35 35 35 34 32 32 32 32 31 32 33 33 33 33 32 31 31 30 30 30 31 31
33 34 33 34 34 34 34 34 34 34 34 34 34 33 33 33 33 33 33 33 33 32 32 32 31 30 30 30 30 30 30 30 30 30 29 29 28 28 28 27 27 27 28
32 32 32 32 33 33 33 33 33 33 34 33 32 31 31 31 31 31 31 30 30 29 29 30 30 29 28 28 28 28 28 27 27 27 27 26 25 25 25 25 25 25 25
29 30 31 31 31 31 30 31 31 31 31 32 31 31 30 30 29 29 29 29 28 28 28 27 27 27 26 27 27 27 27 26 26 25 24 23 23 23 22 23 24 25 25
Wind_Direction
260 261 262 263 263 264 263 263 265 265 266 267 267 267 267 267 266 266 266 267 268 268 269 269 269 269 271 271 272 272 272 271 271 271 271 272 274 275 276 277 278 279 280
261 262 263 264 264 265 264 264 265 266 267 268 268 268 268 267 268 268 267 267 267 268 269 269 269 269 270 271 271 272 272 271 271 271 271 272 273 275 276 277 277 278 279
261 262 263 264 264 265 266 266 267 268 268 268 268 268 268 268 268 268 268 268 268 268 269 269 270 270 270 270 271 272 272 272 271 271 272 273 273 274 275 276 277 278 278
262 262 263 263 264 265 266 267 268 269 270 270 269 269 269 269 268 269 269 269 269 269 270 270 269 271 271 270 271 271 271 272 272 272 272 273 273 274 274 275 276 277 278
262 262 262 264 265 266 267 268 269 270 271 271 270 270 270 270 270 270 270 270 269 269 269 270 270 271 271 271 271 270 271 271 272 272 272 272 272 272 273 274 274 276 277
261 261 262 264 265 266 267 269 270 271 271 271 271 271 271 271 271 271 271 270 269 269 269 269 270 271 271 272 272 271 271 272 272 272 272 272 271 272 273 273 273 275 276
261 261 263 265 266 267 268 268 269 270 271 272 272 272 271 271 270 270 271 270 269 269 269 269 269 270 270 271 272 271 271 273 273 273 272 271 270 271 271 272 273 275 275
261 262 264 266 267 268 268 269 269 270 271 272 272 272 270 269 269 269 269 269 269 268 268 269 269 270 270 271 272 272 272 273 274 274 273 272 271 269 270 271 273 274 274
261 263 264 265 267 267 268 269 270 270 271 272 273 273 271 270 268 268 269 269 269 268 268 269 270 270 270 271 271 271 272 273 273 274 274 274 272 271 270 271 271 272 272
262 264 265 266 267 267 267 268 269 270 272 272 272 272 271 271 270 269 268 268 268 268 269 270 271 271 271 271 271 271 272 274 274 275 274 274 273 272 271 271 271 271 272
263 265 266 266 267 267 268 268 269 270 271 272 272 272 271 271 271 270 268 268 268 269 269 270 271 271 270 271 272 271 272 273 274 275 275 274 273 272 271 270 270 270 270
264 264 265 266 267 267 268 269 270 271 271 272 272 272 271 271 271 270 269 268 268 269 270 271 271 271 272 273 273 273 273 273 273 274 275 274 274 273 272 271 269 269 270
265 264 265 266 268 267 268 269 270 271 271 272 272 273 272 272 271 271 271 270 269 270 270 271 270 272 274 274 274 273 272 272 272 273 274 274 275 274 272 271 269 268 269
266 265 265 266 268 269 269 270 269 271 272 273 274 274 274 273 272 272 272 272 272 271 271 271 272 272 273 274 274 273 271 272 273 273 274 274 275 274 273 271 268 267 267
266 266 266 267 268 269 270 269 270 271 273 273 273 275 274 273 273 273 274 274 274 273 272 272 273 273 274 273 273 272 272 272 274 274 273 273 274 274 274 272 269 267 265
267 267 267 268 269 269 269 268 269 271 273 274 274 276 276 274 274 274 273 274 275 275 272 272 272 273 274 273 273 272 273 275 274 274 273 273 273 274 274 273 272 268 264
268 268 268 268 268 269 269 269 270 271 273 274 275 277 277 276 274 273 273 274 276 275 274 272 273 274 273 273 273 273 273 273 273 273 273 274 274 274 273 273 272 269 264
268 269 269 269 269 269 269 270 270 271 273 274 275 276 277 277 276 274 273 275 276 275 275 274 273 273 272 273 273 273 272 272 272 272 273 274 274 275 273 272 272 270 264
269 270 270 270 270 271 271 271 270 272 273 275 276 276 277 277 277 275 275 276 276 274 274 274 273 273 272 273 273 273 273 274 274 273 273 274 274 274 273 271 271 268 263
269 270 270 270 271 271 272 273 274 274 274 275 276 276 276 276 276 275 276 277 276 275 274 274 273 274 274 273 273 273 273 273 274 274 272 274 274 274 272 271 270 266 263
269 270 270 271 271 272 273 275 277 276 275 275 277 278 277 276 275 275 276 276 277 275 275 275 275 275 274 273 272 272 273 274 274 273 273 274 274 273 273 271 269 266 262
269 270 270 271 271 272 273 275 276 277 276 277 277 278 279 277 276 276 276 277 277 276 275 275 276 276 274 273 272 272 273 274 274 273 274 273 273 273 273 271 268 266 263
270 272 272 271 271 272 273 274 275 278 278 278 278 279 279 279 279 279 278 277 276 275 275 275 275 275 272 272 273 274 274 274 274 274 273 273 272 271 271 270 268 266 265
270 271 272 272 272 272 273 274 276 277 278 279 279 279 280 281 281 280 278 278 277 276 274 273 273 272 271 271 273 274 275 274 275 275 273 271 270 268 267 268 267 265 264
272 273 273 273 272 272 273 274 275 277 277 278 279 279 281 282 281 280 278 278 277 275 274 272 271 269 268 271 273 274 275 275 275 274 272 270 268 266 266 268 266 264 264
273 273 274 274 273 273 274 274 275 277 278 278 278 279 280 282 282 279 277 276 275 274 273 272 270 268 267 269 272 273 275 274 272 271 271 269 268 267 267 267 265 264 264
Height
5769 5770 5771 5772 5772 5773 5774 5775 5777 5778 5779 5779 5780 5781 5782 5783 5783 5784 5785 5785 5786 5786 5786 5786 5786 5787 5787 5787 5787 5787 5787 5787 5788 5787 5787 5787 5787 5787 5786 5785 5785 5784 5783
5760 5761 5762 5763 5763 5764 5765 5766 5767 5768 5769 5770 5771 5771 5772 5773 5774 5774 5775 5776 5776 5776 5777 5777 5777 5777 5777 5777 5778 5778 5778 5778 5778 5778 5778 5778 5778 5777 5777 5776 5776 5775 5774
5751 5752 5753 5754 5754 5754 5755 5756 5757 5758 5759 5760 5761 5761 5762 5763 5763 5764 5764 5765 5765 5766 5766 5767 5767 5767 5767 5767 5768 5768 5768 5768 5768 5768 5768 5768 5768 5767 5767 5766 5766 5765 5764
5741 5742 5743 5744 5744 5745 5746 5746 5747 5748 5748 5749 5750 5751 5751 5752 5752 5753 5753 5753 5754 5754 5755 5755 5756 5756 5756 5756 5757 5757 5757 5757 5757 5757 5757 5756 5756 5756 5756 5755 5755 5754 5754
5731 5732 5733 5734 5734 5735 5736 5736 5737 5737 5738 5738 5739 5739 5740 5740 5741 5741 5741 5741 5742 5742 5743 5743 5744 5744 5744 5745 5745 5745 5745 5745 5745 5745 5744 5744 5744 5744 5744 5744 5744 5743 5742
5721 5721 5722 5723 5724 5725 5725 5726 5726 5726 5727 5727 5727 5728 5729 5729 5729 5729 5729 5729 5729 5730 5730 5731 5731 5731 5732 5732 5732 5732 5732 5732 5732 5732 5731 5731 5731 5732 5732 5732 5731 5731 5730
5710 5711 5711 5712 5713 5714 5714 5715 5715 5715 5715 5715 5715 5716 5716 5716 5716 5716 5716 5716 5717 5717 5717 5718 5718 5719 5719 5719 5719 5719 5719 5718 5718 5717 5717 5717 5718 5718 5718 5718 5718 5718 5717
5698 5699 5700 5701 5702 5702 5702 5703 5703 5703 5703 5702 5702 5702 5704 5705 5704 5704 5704 5704 5704 5704 5704 5705 5705 5705 5705 5706 5706 5705 5705 5705 5704 5703 5703 5703 5703 5704 5704 5704 5705 5704 5704
5686 5687 5688 5689 5689 5690 5690 5690 5691 5691 5691 5690 5689 5689 5689 5691 5691 5692 5691 5691 5691 5691 5691 5692 5692 5691 5692 5692 5692 5692 5691 5691 5689 5689 5689 5689 5688 5688 5689 5690 5690 5690 5689
5673 5674 5675 5676 5677 5677 5678 5678 5678 5678 5678 5678 5677 5676 5676 5676 5677 5679 5680 5679 5678 5678 5678 5678 5678 5678 5678 5678 5678 5678 5677 5676 5676 5675 5675 5674 5674 5673 5674 5674 5675 5675 5675
5661 5662 5663 5664 5664 5665 5665 5666 5666 5666 5666 5665 5665 5664 5663 5663 5662 5663 5666 5666 5665 5664 5664 5664 5664 5664 5664 5664 5664 5664 5663 5662 5662 5661 5660 5660 5659 5658 5659 5659 5660 5661 5661
5650 5651 5651 5652 5652 5653 5653 5654 5654 5654 5653 5653 5652 5651 5650 5650 5649 5649 5651 5652 5652 5652 5651 5651 5651 5651 5650 5651 5651 5650 5649 5648 5648 5647 5646 5645 5645 5644 5644 5644 5645 5646 5647
5638 5639 5639 5640 5640 5641 5641 5642 5642 5642 5641 5640 5640 5638 5637 5637 5636 5636 5637 5638 5639 5640 5639 5639 5638 5638 5637 5637 5636 5636 5636 5635 5634 5633 5632 5632 5631 5630 5630 5630 5630 5631 5633
5627 5627 5628 5628 5629 5629 5630 5630 5630 5630 5629 5628 5628 5627 5625 5625 5624 5623 5623 5624 5625 5627 5627 5627 5625 5624 5624 5623 5623 5621 5622 5621 5620 5619 5619 5618 5617 5616 5615 5615 5616 5617 5619
5616 5616 5616 5617 5618 5618 5618 5618 5618 5618 5618 5617 5617 5615 5614 5613 5612 5611 5611 5611 5612 5613 5615 5614 5612 5611 5610 5610 5609 5608 5607 5607 5606 5606 5605 5604 5603 5602 5602 5602 5602 5603 5605
5605 5606 5606 5606 5607 5607 5606 5607 5607 5607 5607 5606 5605 5604 5603 5602 5601 5600 5599 5598 5598 5598 5600 5601 5599 5598 5596 5596 5595 5595 5594 5593 5593 5592 5592 5591 5590 5589 5589 5588 5588 5589 5591
5595 5595 5596 5596 5596 5596 5596 5596 5596 5596 5596 5595 5594 5593 5591 5590 5589 5588 5587 5586 5586 5585 5585 5587 5586 5584 5583 5582 5582 5581 5581 5580 5580 5579 5579 5577 5577 5576 5575 5575 5575 5575 5576
5586 5585 5586 5586 5586 5586 5586 5586 5585 5585 5584 5584 5582 5581 5580 5578 5577 5576 5575 5574 5573 5572 5572 5573 5573 5572 5571 5569 5569 5568 5568 5568 5567 5567 5566 5565 5564 5563 5562 5562 5561 5561 5563
5576 5576 5576 5576 5576 5576 5575 5575 5575 5574 5573 5572 5571 5569 5568 5567 5566 5565 5564 5563 5561 5560 5559 5559 5560 5560 5559 5558 5557 5556 5556 5556 5555 5555 5554 5553 5552 5551 5550 5550 5549 5550 5551
5566 5566 5566 5566 5566 5566 5565 5565 5564 5563 5562 5561 5559 5558 5557 5556 5555 5554 5552 5551 5550 5548 5547 5547 5548 5548 5548 5547 5546 5545 5545 5545 5544 5543 5542 5541 5540 5539 5538 5539 5539 5539 5540
5556 5556 5556 5556 5556 5556 5555 5554 5553 5552 5551 5550 5548 5547 5546 5544 5543 5542 5541 5539 5538 5537 5536 5536 5537 5537 5537 5536 5536 5535 5535 5534 5533 5532 5531 5531 5530 5529 5528 5528 5528 5529 5531
5546 5546 5546 5546 5546 5546 5545 5544 5543 5542 5540 5539 5538 5536 5535 5534 5532 5531 5529 5528 5526 5525 5525 5525 5526 5526 5526 5526 5525 5525 5524 5524 5525 5525 5522 5522 5520 5519 5519 5519 5519 5520 5522
5536 5536 5536 5536 5536 5535 5535 5534 5532 5532 5531 5529 5528 5526 5525 5523 5522 5521 5519 5518 5517 5516 5515 5516 5516 5516 5516 5517 5517 5516 5515 5515 5515 5514 5513 5513 5511 5511 5510 5510 5511 5512 5513
5527 5527 5526 5526 5526 5525 5524 5524 5523 5522 5521 5520 5518 5517 5516 5514 5513 5511 5510 5509 5508 5507 5507 5507 5508 5508 5508 5508 5508 5507 5507 5506 5506 5505 5504 5505 5504 5503 5503 5503 5503 5504 5505
5518 5517 5517 5516 5516 5515 5515 5514 5513 5512 5511 5510 5510 5508 5507 5506 5504 5502 5501 5501 5500 5500 5499 5499 5499 5499 5499 5499 5499 5499 5499 5499 5499 5498 5497 5497 5497 5496 5497 5497 5497 5497 5498
5509 5508 5507 5507 5506 5506 5505 5504 5503 5503 5502 5502 5501 5500 5498 5497 5495 5494 5493 5493 5493 5492 5492 5491 5491 5491 5492 5492 5492 5492 5492 5492 5491 5492 5491 5491 5490 5490 5491 5492 5491 5491 5491